Current weather by "City, St" or "zip code"  
 

Current Conditions: CARTHAGE

Partly Cloudy


94.1 F

Last Updated on Jul 17 2024, 12:55 PM CDT
Humidity: 55%
Wind Speed: S 9.2 mph
Barometer 30.01 in
Dewpoint: 75.7 F
Visibility: 10.00 mi
Precip: --
Heat Index: 106.9 F
Wind Chill: NA
Current conditions at:

CARTHAGE (K4F2)

Lat: 32.18 Lon: 94.3

active severe weather and emergency alerts image weather storm and storm spotter reports image weather observation monitoring service image
Active
Alerts
Storm Reports Obs
Monitoring

Sign-up For Email & Text Message Weather Alert Notification Services



Advertise Here

Observation History for CARTHAGE


Time Wind
(mph)
Vis
(mi)
Weather Precip (in) Temperature (F) Relative
Humidity
Wind
Chill
(F)
Heat
Index
(F)
Pressure
Air Dwpt altimeter
(in)
sea level
(mb)
Rmks
12:55 PM CDT S 9.2 10.00 Partly Cloudy -- 94.1 75.7 55% NA 106.9 30.01 1016.3
12:15 PM CDT SW 3.4 10.00 Partly Cloudy -- 94.3 75.6 55% NA 106.9 30.03 1016.9
11:35 AM CDT 3.4 10.00 NULL -- 92.8 75.4 57% NA 104.7 30.04 1017.3
11:15 AM CDT W 4.6 10.00 Partly Cloudy -- 93.0 75.6 57% NA 105.3 30.04 1017.3
10:15 AM CDT 4.6 10.00 Clear -- 90.0 77.0 66% NA 103.1 30.04 1017.3
09:35 AM CDT 10.00 Mostly Cloudy -- NULL % NA NA M
09:15 AM CDT 6.9 10.00 Mostly Cloudy -- 85.3 79.0 82% NA 98.4 30.03 1016.9
08:55 AM CDT SW 5.7 10.00 Mostly Cloudy -- 83.7 79.0 86% NA 95.2 30.03 1016.9
08:15 AM CDT 4.6 10.00 Partly Cloudy -- 81.3 78.6 92% NA 89.8 30.03 1016.9
07:15 AM CDT S 4.6 10.00 Clear -- 76.3 73.6 91% NA 77.9 30.00 1015.9
06:55 AM CDT S 3.4 7.00 Clear -- 75.4 72.5 91% NA 76.8 29.99 1015.6
06:35 AM CDT 7.00 Clear -- NULL % NA NA M
06:15 AM CDT 0.0 7.00 Clear -- 75.0 72.0 90% NA 76.5 29.99 1015.6
05:55 AM CDT S 3.4 7.00 Clear -- 75.2 72.1 90% NA 76.6 29.98 1015.2
05:15 AM CDT S 4.6 7.00 Clear -- 75.2 71.4 88% NA 76.6 29.98 1015.2
04:35 AM CDT 0.0 10.00 Clear -- 75.4 71.4 88% NA 76.8 29.98 1015.2
04:15 AM CDT 0.0 10.00 Clear -- 75.7 71.6 87% NA 77.2 29.99 1015.6
03:35 AM CDT 10.00 Clear -- NULL % NA NA M
03:15 AM CDT S 4.6 10.00 Clear -- 76.8 72.9 88% NA 78.3 29.97 1014.9
02:55 AM CDT 3.4 10.00 Clear -- 77.2 73.4 88% NA 78.8 29.97 1014.9
02:35 AM CDT 10.00 Clear -- NULL % NA NA M
02:15 AM CDT 4.6 10.00 Clear -- 78.1 73.9 87% NA 79.7 29.95 1014.2
01:55 AM CDT S 6.9 10.00 Clear -- 78.1 73.8 87% NA 79.7 29.95 1014.2
01:15 AM CDT S 8.1 10.00 Clear -- 76.3 71.6 85% NA 77.5 29.94 1013.9

Regional Weather Observation


LONGVIEW (KGGG)

Clear
91.0 F

CARTHAGE (K4F2)

Partly Cloudy
94.1 F